Regional Weather Roundup
Issued by NWS Pendleton, OR

Home | Current Version | Previous Version | Text Only | Print | Product List | Glossary On
Versions: 1 2 3 4 5 6 7 8 9 10 11 12 13 14 15 16 17 18 19 20 21 22 23 24 25 26 27 28 29 30 31 32 33 34 35 36 37 38 39 40 41 42 43 44 45 46 47 48 49 50
000
ASUS46 KPDT 161604
RWRPDT
PENDLETON REGIONAL WEATHER ROUNDUP
NATIONAL WEATHER SERVICE PENDLETON OREGON
900 AM PDT TUE SEP 16 2014

NOTE: FAIR INDICATES FEW OR NO CLOUDS BELOW 12,000 FEET WITH NO
SIGNIFICANT WEATHER AND/OR OBSTRUCTIONS TO VISIBILITY.

# INDICATES UNOFFICIAL STATION AND DATA

WAZ520-161710-
EAST SLOPES OF WASHINGTON CASCADES

CITY            SKY/WX      TMP DP  RH  WIND    PRES   REMARKS
#BULLFROG       N/A         46  41  83  S5      N/A
#BUMPING DAM    N/A         49  N/A N/A NE5     N/A
#CLE ELUM HS    N/A         53  43  69  CALM    29.87S
#CLE ELUM 2NW   N/A         57  42  57  CALM    N/A
#CLE ELUM LAKE  N/A         60  36  41  CALM    29.78S
#CLIFFDEL 2NW   N/A         50  38  63  NE1     N/A
#EASTON DOT     N/A         58  39  49  W6      N/A
#GLENWOOD       N/A         48  43  83  CALM    29.86F
#MANASTASH CYN  N/A         60  38  44  CALM    29.90F
#NELSON         N/A         47  44  89  CALM    29.88R
#NELSON 3SW     N/A         57  41  55  CALM    30.02S
#NILE           N/A         56  41  57  W2      29.14F
#PEOH POINT     N/A         68  28  22  E2      N/A
#RONALD 2NW     N/A         58  40  51  CALM    29.81S
#TEANAWAY 4NE   N/A         54  41  61  CALM    N/A
#TROUT LAKE 1NE N/A         55  45  69  CALM    29.85S
$$

WAZ521-161710-
SIMCOE HIGHLANDS

CITY            SKY/WX      TMP DP  RH  WIND    PRES   REMARKS
#BICKLETON HS   N/A         65  28  25  CALM    29.97S
#SATUS PASS DOT N/A         56  31  38  CALM    N/A
#CENTERVILLE 4W N/A         59  36  42  W1      29.65S
#CENTERVILLE 1SWN/A         50  31  48  CALM    29.84F
#GOLDENDALE     N/A         49  32  52  E2      N/A
#GOLDENDALE 1NE N/A         50  28  42  CALM    N/A
#GOLDENDALE 1S  N/A         52  35  52  CALM    29.88S
#GOLDENDALE 5WNWN/A         54  36  50  CALM    29.83R
#GOODNOE HILLS  N/A         63  43  48  S6      29.82R
#LYLE 6NE       N/A         56  47  72  S5      29.80F
$$

WAZ026-161710-
KITTITAS VALLEY

CITY            SKY/WX      TMP DP  RH  WIND    PRES   REMARKS
ELLENSBURG AP   SUNNY       61  41  48  CALM    29.90S
#ELLENSBURG CWU N/A         57  43  59  CALM    29.80F
#ELLENSBURG 3NE N/A         57  43  59  N1      29.91S
#ELLENSBURG     N/A         65  44  46  CALM    N/A
#KITTITAS 3S    N/A         51  46  83  CALM    29.85S
#MANASTASH RDG  N/A         65  65  100 CALM    N/A
#ROCKY CYN DOT  N/A         58  44  60  W7      N/A
#RYEGRASS DOT   N/A         68  39  35  SW1     N/A
#THORP 6N       N/A         60  37  42  N1      29.83F
$$

WAZ027-161710-
YAKIMA VALLEY

CITY            SKY/WX      TMP DP  RH  WIND    PRES   REMARKS
SUNNYSIDE AP    MOCLDY      55  48  77  CALM    29.86R
YAKIMA AIRPORT  SUNNY       66  42  42  W6      29.87S
YAKIMA-VAGABOND SUNNY       65  36  34  VRB1    29.88S
#COWICHE 1N     N/A         64  43  46  NW3     30.04F
#DONALD 2NE     N/A         75  41  29  NE1     30.18R
#GRANDVIEW      N/A         60  46  60  CALM    29.85S
#MABTON         N/A         58  50  75  CALM    29.85S
#MOXEE 2E       N/A         64  36  35  E2      29.81F
#NACHES 2SW     N/A         64  44  48  W6      29.89R
#PARKER DOT     N/A         64  42  45  W2      N/A
#SELAH 8E       N/A         61  31  32  E2      N/A
#TERRACE HTS    N/A         59  42  53  CALM    29.79S
#TOPPENISH      N/A         56  49  77  CALM    29.75S
#I82 S UMTANUM RN/A         64  39  40  NE7     N/A
#UNION GAP DOT  N/A         56  44  64  E2      N/A
#WAPATO 4NE     N/A         75  41  29  NE1     30.18R
#WEST VALLEY    N/A         63  46  54  CALM    29.81F
#W YAKIMA       N/A         65  43  45  W2      29.81F
#WHITE SWAN 5E  N/A         60  49  67  CALM    29.83S
#WILEY CITY 3W  N/A         67  53  61  CALM    29.87S
#ZILLAH DOT     N/A         52  45  77  CALM    N/A
$$

WAZ028-161710-
LOWER COLUMBIA BASIN...WASHINGTON

CITY            SKY/WX      TMP DP  RH  WIND    PRES   REMARKS
PASCO           MOCLDY      60  46  60  CALM    29.85S
PROSSER AWOS    N/A         59  50  72  N1      29.88S
RICHLAND AWOS   MOCLDY      63  48  58  CALM    29.85S
#BASIN CITY 5SW N/A         60  49  67  CALM    29.85R
#BENTON CITY    N/A         59  50  72  CALM    29.74S
#CONNELL 5N     N/A         61  37  41  CALM    29.82R
#CONNELL 5NW    N/A         58  44  60  CALM    29.78S
#ELTOPIA        N/A         59  43  55  CALM    29.80S
#ELTOPIA 6NW    N/A         62  44  52  NE5     28.82S
#KENNEWICK 3S   N/A         61  43  51  CALM    29.83S
#PASCO-BROADMOORN/A         65  48  54  CALM    29.73R
#PATERSON       N/A         59  48  67  CALM    29.83S
#PROSSER DOT    N/A         57  48  72  CALM    N/A
#PROSSER        N/A         61  44  53  CALM    29.82S
#SAGEMOOR 2W    N/A         60  45  58  SW2     29.68S
#TOUCHET 2S     N/A         57  44  62  CALM    29.83S
#WEST PASCO     N/A         61  48  62  CALM    29.83S
$$

WAZ029-161710-
FOOTHILLS OF THE BLUES...WASHINGTON

CITY            SKY/WX      TMP DP  RH  WIND    PRES   REMARKS
WALLA WALLA AP  PTCLDY      70  37  30  W6      29.87R
#DAYTON SCHOOL  N/A         62  39  43  CALM    29.86S
#DELANEY DOT    N/A         56  41  57  CALM    N/A
#LOWDEN 2SE     N/A         60  47  62  CALM    29.82R
#PLEASANT VIEW 1N/A         69  36  30  S5      29.83S
#PRESCOTT       N/A         60  44  55  CALM    29.82S
#SUDBURY        N/A         64  N/A N/A CALM    N/A
#WHITMAN COLLEGEN/A         65  44  46  E3      29.87R
#WAITSBURG 8N   N/A         69  29  22  S6      29.76F
#WALLA WALLA 5E N/A         72  42  34  W7      N/A
#WALLA WALLA U  N/A         64  47  54  CALM    29.83R
#WHITMAN MISSIONN/A         55  48  77  CALM    29.85R
$$

WAZ030-161710-
BLUE MOUNTAINS...WASHINGTON

CITY            SKY/WX      TMP DP  RH  WIND    PRES   REMARKS
$$

ORZ009-041-WAZ024-161710-
COLUMBIA RIVER GORGE

CITY            SKY/WX      TMP DP  RH  WIND    PRES   REMARKS
HOOD RIVER AP   PTCLDY      55  45  69  CALM    29.90S
THE DALLES AP   PTCLDY      64  47  54  NW9     29.87S
#ARLINGTON AIRPON/A         64  39  40  E13     N/A
#ARLINGTON HS   N/A         68  39  35  W6      29.74F
#MARYHILL       N/A         60  43  53  N1      N/A
#MARYHILL 2W    N/A         63  49  60  SW2     N/A
#MOSIER 1S      N/A         60  42  51  CALM    29.91S
#MURDOCK        N/A         64  50  60  NW13    29.88S
#RUFUS DOT      N/A         63  46  54  CALM    N/A

$$

ORZ510-161710-
NORTH CENTRAL OREGON

CITY            SKY/WX      TMP DP  RH  WIND    PRES   REMARKS
#CHENOWITH 1W   N/A         55  46  72  W18     N/A
#COW CYN RST AREN/A         63  31  30  W2      N/A
#DUFUR 9E       N/A         65  37  35  W2      29.85S
#GRASS VALLEY   N/A         66  34  30  SW2     N/A
#GRASS VALLEY 1SN/A         59  34  39  CALM    29.88R
#KENT DOT       N/A         66  34  30  SW2     N/A
#MAUPIN SCHOOL  N/A         59  37  44  CALM    28.79S
#MORO SCHOOL    N/A         66  40  38  W5      29.91F
#SHANIKO 5WSW   N/A         64  32  30  SW3     N/A
#SHANIKO 4NW    N/A         63  29  28  W7      29.96S
#TYGH VALLEY 2NEN/A         55  39  55  CALM    29.86S
#WAPANITIA AIRPON/A         62  37  39  CALM    29.85S
#WASCO DOT      N/A         65  47  52  SW3     N/A
#WASCO 5NE      N/A         64  44  48  W7      29.83S
$$

ORZ511-161710-
CENTRAL OREGON

CITY            SKY/WX      TMP DP  RH  WIND    PRES   REMARKS
BEND AIRPORT    MOCLDY      66  36  33  CALM    29.98S
MADRAS AIRPORT  PTCLDY      61  36  39  CALM    29.94S
REDMOND AIRPORT MOCLDY      70  29  22  S8      29.94F
#BEND 6E        N/A         66  32  28  CALM    29.75F
#BEND 1SW       N/A         59  38  45  S1      N/A
#BEND-AWBREY    N/A         66  37  34  N3      29.79S
#BEND-KIM LN    N/A         60  42  51  S3      29.95R
#CROOKED RVR RANN/A         60  37  42  CALM    29.82F
#CULVER         N/A         57  41  55  CALM    29.89S
#LAKE BILLY CHINN/A         64   2   8  CALM    29.98S
#POWELL BUTTE 3EN/A         63  37  38  N3      N/A
#POWELL BUTTE   N/A         69  40  35  N3      29.61S
#PRINEVILLE 3N  N/A         58  39  49  CALM    29.80F
#WARM SPRINGS   N/A         61  39  44  CALM    29.89S


ORZ509-161710-
EAST SLOPES OF OREGON CASCADES

CITY            SKY/WX      TMP DP  RH  WIND    PRES   REMARKS
#BLUE BOX PASS  N/A         56   4  12  W2      N/A
#BLACK BUTTE RNCN/A         47  41  79  CALM    29.85F
#CAMP SHERMAN   N/A         45  36  70  CALM    29.92S
#LA PINE DOT    N/A         51  37  59  SW1     N/A
#LA PINE 4NW    N/A         52  36  54  CALM    29.90F
#LAVA BUTTE DOT N/A         58  39  49  SE2     N/A
#MT BACHELOR-MIDN/A         53  20  27  S20G26  N/A
#SISTERS AIRPOR N/A         54  43  66  CALM    29.94S
#SISTERS ODOT   N/A         55  N/A N/A CALM    N/A
#SISTERS 3N     N/A         51  36  56  CALM    N/A
#SUNRIVER       N/A         47  39  74  NE1     29.76S
#SUNRIVER AP    N/A         43  36  76  CALM    29.83S
#SUTTLE LK DOT  N/A         49  40  71  SE13    N/A    WCI 44
#TUMALO 3W      N/A         64  35  34  SW1     29.67F
#WANOGA BUTTE D N/A         54  32  43  W7      N/A

$$

ORZ044-161710-
LOWER COLUMBIA BASIN...OREGON

CITY            SKY/WX      TMP DP  RH  WIND    PRES   REMARKS
HERMISTON       PTCLDY      63  43  48  N3      29.86R
#BOARDMAN SCHOOLN/A         61  43  51  CALM    29.84F
#BOARDMAN 3W    N/A         63  45  52  N1      29.59S
#BOARDMAN 8SW   N/A         63  41  44  SW2     29.83F
#ECHO 8SW       N/A         67  41  39  CALM    29.83S
#IONE SCHOOL    N/A         62  40  44  CALM    29.87S
#IRRIGON 4NW    N/A         56  49  77  SE1     N/A
#UMATILLA SCHOOLN/A         54  47  77  CALM    29.88F
#UMATILLA       N/A         58  45  62  CALM    29.84R
$$

ORZ507-161710-
NORTHERN FOOTHILLS OF THE BLUES

CITY            SKY/WX      TMP DP  RH  WIND    PRES   REMARKS
PENDLETON AIRPT PTCLDY      68  34  28  NW6     29.87R
#ADAMS 3WNW     N/A         69  38  32  W2      29.83S
#ATHENA         N/A         68  40  36  CALM    29.85S
#HELIX SCHOOL   N/A         67  38  34  W2      29.82R
#HELIX 3N       N/A         70  36  29  N7      29.86R
#HOLDMAN 5SE    N/A         66  37  34  SW2     29.88S
#HOLDMAN 6E     N/A         65  36  34  N1      29.64R
#M-FREEWATER 5SEN/A         67  52  59  CALM    29.86R
#PENDLETON DNTN N/A         54  35  48  CALM    29.88S
#PDT AQUATIC CTRN/A         60  39  46  CALM    29.88R
#PDT SUNRIDGE   N/A         61  39  44  CALM    29.88S
#PENDLETON 7NW  N/A         66  42  42  CALM    27.29R
#PILOT ROCK     N/A         69  37  31  CALM    29.90S
#TUTUILLA       N/A         64  42  45  CALM    29.85R
#UMAPINE 2E     N/A         63  49  60  CALM    29.83R
#WESTON SCHOOL  N/A         71  35  27  N1      29.85R

$$

ORZ508-161710-
SOUTHERN FOOTHILLS OF THE BLUES

CITY            SKY/WX      TMP DP  RH  WIND    PRES   REMARKS
#AJAX           N/A         65  29  26  SW5     29.85S
#CONDON SCHOOL  N/A         65  37  35  CALM    29.90S
#CONDON 5W      N/A         64  29  27  SW7     29.91S
#FOSSIL SCHOOL  N/A         60  38  44  CALM    29.91S
#HEPPNER EOC    N/A         66  37  34  E1      29.78S
#HEPPNER 4NE    N/A         68  35  29  W1      29.80S
#LEXINGTON 2SE  N/A         66  41  40  SE3     29.86S
#MIKKALO        N/A         71  32  24  W3      29.88S
#OLEX 4N        N/A         67  35  30  SW7     29.86S
#RUGGS 5NE      N/A         70  38  31  W6      30.07S
#RUGGS 2SW      N/A         73  35  25  W6      29.86F

$$

ORZ502-503-161710-
BLUE MOUNTAINS

CITY            SKY/WX      TMP DP  RH  WIND    PRES   REMARKS
MEACHAM         SUNNY       65  42  43  CALM    29.97S
#BATTLE MTN DOT N/A         66  49  54  SE3     N/A
#HARDMAN 10S    N/A         70  34  26  S6      30.04S
#HEPPNER 15SE   N/A         70  36  29  S5      29.90S
#LADD CYN SMT   N/A         70  40  34  E13     N/A
#LADD CREEK ODOTN/A         59  43  55  NE8     N/A
#N POWDER DOT   N/A         62  50  65  CALM    N/A
#PIKES PEAK     N/A         70  34  26  SW6     27.99S
#TOLLGATE       N/A         67  41  39  SW2     29.98R
#TROY SCHOOL    N/A         59  41  51  CALM    29.72F
#UKIAH          N/A         56  38  51  CALM    29.92F
#WESTON 4E      N/A         75  40  28  SW1     29.73R
$$

ORZ505-161710-
JOHN DAY BASIN

CITY            SKY/WX      TMP DP  RH  WIND    PRES   REMARKS
JOHN DAY        SUNNY       70  44  39  E7      30.00S
#MONUMENT HS    N/A         59  38  45  CALM    29.94S
#MT. VERNON 5SE N/A         74  39  28  E5      29.97R
#WINLOCK        N/A         74  39  28  E2      30.03S
$$

ORZ506-161710-
OCHOCO AND JOHN DAY HIGHLANDS

CITY            SKY/WX      TMP DP  RH  WIND    PRES   REMARKS
#BUCK CREEK DOT N/A         69  41  36  E9      N/A
#HORSE RIDGE DO N/A         71  28  20  SE3     N/A
#KEYES SMT DOT  N/A         71  33  25  N2      N/A
#PAULINA SCHOOL N/A         58  39  49  CALM    30.01R
#PINE MTN OBS   N/A         58  29  33  S15G28  N/A
#PRAIRIE CITY   N/A         62  49  62  CALM    29.92F
#SENECA 9NW     N/A         49  46  89  CALM    29.85F
$$

ORZ049-161710-
GRANDE RONDE VALLEY

CITY            SKY/WX      TMP DP  RH  WIND    PRES   REMARKS
LA GRANDE       SUNNY       61  34  36  CALM    29.96R
#COVE           N/A         62  45  54  CALM    29.88S
#COVE SCHOOL    N/A         63  45  52  CALM    29.94S
#COVE 6NW       N/A         50  40  68  CALM    29.91F
#ELGIN 3N       N/A         60  38  44  N1      29.70S
#ELGIN 1E       N/A         49  38  66  CALM    N/A
#IMBLER SCHOOL  N/A         61  39  44  N7      29.92S
#LADD CYN DOT   N/A         61  40  46  SE2     N/A
#LA GRANDE ELEM N/A         64  40  41  CALM    29.94S
#UNION 1S       N/A         59  41  51  CALM    29.77S
$$

ORZ050-161710-
WALLOWA COUNTY

CITY            SKY/WX      TMP DP  RH  WIND    PRES   REMARKS
#ENTERPRISE AP  N/A         60  32  35  N1      29.93F
#ENTERPRISE HS  N/A         59  42  53  CALM    30.01S
#IMNAHA SCHOOL  N/A         64  40  41  CALM    29.84F
#IMNAHA 10S     N/A         65  42  43  CALM    29.94F
#JOSEPH 3N      N/A         59  45  60  CALM    30.01F
#JOSEPH 3W      N/A         78  44  30  W2      29.87F
#LOSTINE        N/A         58  40  51  CALM    29.67S
#MT HOWARD 8000 N/A         56  38  51  S7      30.26R
#PROMISE 1S     N/A         67  41  39  CALM    29.91F
#SHEEP RDG 7000 N/A         61  38  42  CALM    29.73S
#WALLOWA SCHOOL N/A         52  41  66  CALM    30.80S



$$



USA.gov is the U.S. government's official web portal to all federal, state and local government web resources and services.